Location: Street
(51.1247°N, 2.7429°W)
Time: 02:08:28
(UTC+00:00)

deb Explorer IX - Pass Details

Date: 06 December 2020
Orbit: 536 x 1104 km, 38.8° (Epoch: 20 January)

Event Time Altitude Azimuth Distance (km) Brightness Sun altitude
Rises 13:43:01 0° 221° (SW) 3,894 ? 13.0°
Reaches altitude 10° 13:46:33 10° 206° (SSW) 2,900 ? 12.8°
Maximum altitude 13:51:31 21° 161° (SSE) 2,133 ? 12.5°
Drops below altitude 10° 13:56:11 10° 116° (ESE) 2,693 ? 12.1°
Sets 13:59:20 0° 101° (E) 3,540 ? 11.9°
